Weather History for Tampa Knight Airport, FL

Change the Weather History Date:

Tuesday, February 12, 2013

  Actual Average (KTPA) Record (KTPA)
Temperature  
Mean Temperature 71 °F 63 °F  
Max Temperature 78 °F 72 °F 87 °F (1959)
Min Temperature 64 °F 54 °F 33 °F (1955)
Degree Days  
Heating Degree Days 0 4  
Month to date heating degree days 55  
Since 1 July heating degree days 420  
Cooling Degree Days 6 2  
Month to date cooling degree days 24  
Year to date cooling degree days 74  
Growing Degree Days 21 (Base 50)    
Moisture  
Dew Point 65 °F    
Average Humidity 84    
Maximum Humidity 94    
Minimum Humidity 65    
Precipitation  
Precipitation 0.00 in 0.10 in 1.66 in (2008)
Month to date precipitation 1.22  
Year to date precipitation 3.45  
Sea Level Pressure  
Sea Level Pressure 30.04 in    
Wind  
Wind Speed 7 mph (SSW)    
Max Wind Speed 18 mph    
Max Gust Speed 34 mph    
Visibility 9 miles    
Events      
T = Trace of Precipitation, MM = Missing Value Source: NWS Daily Summary

Daily Weather History Graph

Daily Weather History Graph

Search for Another Location

Airport:

Trip Planner

Search our weather history database for the weather conditions in past years. The results will help you decide how hot, cold, wet, or windy it might be!

Date:

Astronomy

Feb. 12, 2013 Rise Set
Actual Time 7:09 AM EST 6:18 PM EST
Civil Twilight 6:45 AM EST 6:43 PM EST
Nautical Twilight 6:17 AM EST 7:10 PM EST
Astronomical Twilight 5:50 AM EST 7:38 PM EST
Moon 8:24 AM EST (2/12) 8:57 PM EST (2/12)
Length of Visible Light 11h 57m
Length of Day
11h 09m
Waxing Crescent, 7% of the Moon is Illuminated
Feb 12
Waxing Crescent
Feb 17
First Quarter
Feb 25
Full
Mar 4
Last Quarter
Mar 11
New

Hourly Weather History & Observations

Time (EST) Temp. Dew Point Humidity Pressure Visibility Wind Dir Wind Speed Gust Speed Precip Events Conditions
12:15 AM 66.2 °F 62.6 °F 88% 30.11 in 10.0 mi South 5.8 mph - N/A   Clear
12:35 AM 66.2 °F 62.6 °F 88% 30.11 in 10.0 mi South 4.6 mph - N/A   Clear
12:55 AM 66.2 °F 62.6 °F 88% 30.10 in 10.0 mi South 5.8 mph - N/A   Clear
1:15 AM 66.2 °F 62.6 °F 88% 30.11 in 10.0 mi South 4.6 mph - N/A   Clear
1:35 AM 66.2 °F 62.6 °F 88% 30.11 in 10.0 mi South 4.6 mph - N/A   Clear
1:55 AM 66.2 °F 62.6 °F 88% 30.10 in 10.0 mi SSW 5.8 mph - N/A   Clear
2:15 AM 66.2 °F 62.6 °F 88% 30.10 in 10.0 mi South 6.9 mph - N/A   Clear
2:35 AM 66.2 °F 62.6 °F 88% 30.09 in 10.0 mi South 6.9 mph - N/A   Clear
2:55 AM 66.2 °F 62.6 °F 88% 30.08 in 10.0 mi South 5.8 mph - N/A   Clear
3:15 AM 66.2 °F 62.6 °F 88% 30.08 in 10.0 mi South 6.9 mph - N/A   Clear
3:35 AM 64.4 °F 62.6 °F 94% 30.08 in 10.0 mi South 6.9 mph - N/A   Clear
3:55 AM 64.4 °F 62.6 °F 94% 30.07 in 10.0 mi South 6.9 mph - N/A   Clear
4:15 AM 64.4 °F 62.6 °F 94% 30.07 in 10.0 mi South 6.9 mph - N/A   Clear
4:35 AM 64.4 °F 62.6 °F 94% 30.06 in 7.0 mi South 5.8 mph - N/A   Clear
4:55 AM 64.4 °F 62.6 °F 94% 30.07 in 7.0 mi South 5.8 mph - N/A   Scattered Clouds
5:15 AM 64.4 °F 62.6 °F 94% 30.07 in 10.0 mi South 5.8 mph - N/A   Scattered Clouds
5:35 AM 64.4 °F 62.6 °F 94% 30.07 in 10.0 mi SSE 5.8 mph - N/A   Scattered Clouds
5:55 AM 64.4 °F 62.6 °F 94% 30.07 in 10.0 mi SSE 5.8 mph - N/A   Scattered Clouds
6:15 AM 64.4 °F 62.6 °F 94% 30.07 in 10.0 mi SSE 4.6 mph - N/A   Mostly Cloudy
6:35 AM 64.4 °F 62.6 °F 94% 30.08 in 10.0 mi SSE 4.6 mph - N/A   Mostly Cloudy
6:55 AM 64.4 °F 62.6 °F 94% 30.09 in 10.0 mi SE 3.5 mph - N/A   Mostly Cloudy
7:15 AM 64.4 °F 62.6 °F 94% 30.09 in 7.0 mi SE 3.5 mph - N/A   Overcast
7:35 AM 64.4 °F 62.6 °F 94% 30.10 in 7.0 mi South 3.5 mph - N/A   Overcast
7:55 AM 66.2 °F 62.6 °F 88% 30.10 in 7.0 mi SSE 3.5 mph - N/A   Overcast
8:15 AM 66.2 °F 62.6 °F 88% 30.10 in 7.0 mi Calm Calm - N/A   Overcast
8:35 AM 66.2 °F 62.6 °F 88% 30.11 in 7.0 mi Calm Calm - N/A   Overcast
8:55 AM 66.2 °F 64.4 °F 94% 30.11 in 5.0 mi SSE 5.8 mph - N/A   Overcast
9:15 AM 66.2 °F 62.6 °F 88% 30.11 in 3.0 mi SSE 3.5 mph - N/A   Overcast
9:35 AM 66.2 °F 64.4 °F 94% 30.11 in 2.0 mi SSE 3.5 mph - N/A   Overcast
9:55 AM 68.0 °F 64.4 °F 88% 30.12 in 3.0 mi Calm Calm - N/A   Overcast
10:15 AM 68.0 °F 64.4 °F 88% 30.12 in 5.0 mi South 3.5 mph - N/A   Overcast
10:35 AM 69.8 °F 64.4 °F 83% 30.11 in 7.0 mi South 3.5 mph - N/A   Overcast
10:55 AM 71.6 °F 64.4 °F 78% 30.11 in 10.0 mi South 3.5 mph - N/A   Mostly Cloudy
11:15 AM 73.4 °F 66.2 °F 78% 30.11 in 10.0 mi South 3.5 mph - N/A   Scattered Clouds
11:35 AM 77.0 °F 66.2 °F 69% 30.10 in 10.0 mi SSW 5.8 mph - N/A   Scattered Clouds
11:55 AM 78.8 °F 66.2 °F 65% 30.09 in 10.0 mi SW 13.8 mph - N/A   Scattered Clouds
12:15 PM 78.8 °F 66.2 °F 65% 30.08 in 10.0 mi SW 12.7 mph - N/A   Scattered Clouds
12:35 PM 78.8 °F 66.2 °F 65% 30.07 in 10.0 mi North - - N/A   Clear
12:55 PM 78.8 °F 66.2 °F 65% 30.06 in 10.0 mi SW 13.8 mph - N/A   Clear
1:15 PM 78.8 °F 66.2 °F 65% 30.04 in 10.0 mi SW 15.0 mph 34.5 mph N/A   Clear
1:35 PM 78.8 °F 66.2 °F 65% 30.02 in 10.0 mi SW 16.1 mph 19.6 mph N/A   Clear
1:55 PM 78.8 °F 66.2 °F 65% 30.01 in 10.0 mi SW 18.4 mph - N/A   Clear
2:15 PM 78.8 °F 66.2 °F 65% 30.00 in 10.0 mi SW 16.1 mph 21.9 mph N/A   Clear
2:35 PM 78.8 °F 66.2 °F 65% 29.99 in 10.0 mi SW 16.1 mph 20.7 mph N/A   Clear
2:55 PM 78.8 °F 66.2 °F 65% 29.99 in 10.0 mi SW 15.0 mph 20.7 mph N/A   Clear
3:15 PM 78.8 °F 66.2 °F 65% 29.99 in 10.0 mi SW 12.7 mph 20.7 mph N/A   Clear
3:35 PM 78.8 °F 66.2 °F 65% 29.99 in 10.0 mi SW 12.7 mph 19.6 mph N/A   Clear
3:55 PM 78.8 °F 66.2 °F 65% 29.98 in 10.0 mi SW 9.2 mph - N/A   Clear
4:15 PM 77.0 °F 66.2 °F 69% 29.98 in 10.0 mi North - - N/A   Clear
4:35 PM 77.0 °F 66.2 °F 69% 29.98 in 10.0 mi SW 12.7 mph 19.6 mph N/A   Clear
4:55 PM 77.0 °F 64.4 °F 65% 29.98 in 10.0 mi SW 11.5 mph - N/A   Clear
5:15 PM 75.2 °F 66.2 °F 73% 29.98 in 10.0 mi SW 10.4 mph - N/A   Clear
5:35 PM 73.4 °F 66.2 °F 78% 29.97 in 10.0 mi SW 13.8 mph 17.3 mph N/A   Clear
5:55 PM 73.4 °F 66.2 °F 78% 29.97 in 10.0 mi SW 11.5 mph - N/A   Clear
6:15 PM 71.6 °F 66.2 °F 83% 29.97 in 10.0 mi SW 11.5 mph 16.1 mph N/A   Clear
6:35 PM 71.6 °F 66.2 °F 83% 29.97 in 10.0 mi SW 10.4 mph - N/A   Clear
6:55 PM 71.6 °F 68.0 °F 88% 29.98 in 10.0 mi SW 10.4 mph - N/A   Clear
7:15 PM 71.6 °F 68.0 °F 88% 29.97 in 10.0 mi SSW 11.5 mph - N/A   Scattered Clouds
7:35 PM 71.6 °F 68.0 °F 88% 29.98 in 10.0 mi SSW 10.4 mph - N/A   Scattered Clouds
7:55 PM 69.8 °F 68.0 °F 94% 29.98 in 7.0 mi SSW 8.1 mph - N/A   Clear
8:15 PM 69.8 °F 66.2 °F 88% 29.98 in 7.0 mi SSW 6.9 mph - N/A   Scattered Clouds
8:35 PM 69.8 °F 66.2 °F 88% 29.98 in 7.0 mi SSW 6.9 mph - N/A   Clear
9:15 PM 69.8 °F 66.2 °F 88% 29.99 in 7.0 mi SSW 5.8 mph - N/A   Overcast
9:35 PM 69.8 °F 68.0 °F 94% 29.99 in 7.0 mi SSW 6.9 mph - N/A   Overcast
9:55 PM 69.8 °F 68.0 °F 94% 29.99 in 5.0 mi SSW 6.9 mph - N/A   Overcast
10:15 PM 69.8 °F 68.0 °F 94% 29.99 in 5.0 mi SSW 8.1 mph - N/A   Overcast
10:35 PM 69.8 °F 68.0 °F 94% 29.99 in 5.0 mi SSW 8.1 mph - N/A   Overcast
10:55 PM 69.8 °F 68.0 °F 94% 29.99 in 5.0 mi SSW 6.9 mph - N/A   Overcast
11:15 PM 69.8 °F 68.0 °F 94% 29.99 in 5.0 mi SSW 6.9 mph - N/A   Overcast
11:35 PM 69.8 °F 68.0 °F 94% 29.98 in 7.0 mi South 8.1 mph - N/A   Overcast
11:55 PM 69.8 °F 68.0 °F 94% 29.98 in 7.0 mi South 6.9 mph - N/A   Overcast